User: anonymous   Login
Location: Unspecified
(0.0000°N, 0.0000°E)
Time: 12:15:40
(UTC+02:00)
Language:

Palapa 6 Rocket - Orbit

View from above orbital plane
View from above orbital plane
View from above satellite
View from above satellite

Ground track
Ground track

The orbit data is extracted from the following two-line orbital elements,

1 20571U 90034B   15246.95134022 +.00001330 +00000-0 +15565-3 0  9997
2 20571 022.7454 115.3039 0511779 034.0939 092.8652 14.11091500300266
Epoch (UTC): 03 September 2015 22:49:55
Eccentricity: 0.0511779
inclination: 22.7454°
perigee height: 485 km
apogee height: 1226 km
right ascension of ascending node: 115.3039°
argument of perigee: 34.0939°
revolutions per day: 14.11091500
mean anomaly at epoch: 92.8652°
orbit number at epoch: 30026

The dashed part of the orbit path shows where the satellite is in the earth's shadow,  

DLR